Tracking 23762 objects as of 21-Oct-2021
HD Live streaming from Space Station
objects crossing your sky now

USA 24

Track USA 24 now!
10-day predictions
USA 24 is classified as:


NORAD ID: 18010
Int'l Code: 1987-043F
Perigee: 382.0 km
Apogee: 1,796.0 km
Inclination: 63.3 °
Period: 106.9 minutes
Semi major axis: 7460 km
RCS: Unknown
Launch date: May 15, 1987
Source: United States (US)
Launch site: AIR FORCE WESTERN TEST RANGE (AFWTR)
aabbcc
Your satellite tracking list
Your tracking list is empty




NASA's NSSDC Master Catalog

Two Line Element Set (TLE):
1 18010U 87043F   21294.46019154  .00002108  00000-0  16878-3 0  9994
2 18010  63.2988 280.4747 0947756  72.4825 297.7415 13.47388551113506
Source of the keplerian elements: McCants